Home   Weather   Salzburg   Past weeks

Flag for Austria Past Weather in Salzburg, Salzburg, Austria — Yesterday and Last 2 Weeks

Now
32 °F

Chilly.


Feels Like: N/A
Forecast: 40 / 65 °F
Wind: N/A

Location: Salzburg-Flughafen

Current Time: Apr 24, 2017 at 6:07:11 am

Latest Report: Apr 24, 2017 at 5:00 am


Visibility: 19 mi

Pressure: 30.23 "Hg

Humidity: 90%

Dew Point: 30 °F

Location of SalzburgLocation

Past Weather in Salzburg — Graph

°F

Salzburg Temperature Yesterday

Maximum temperature yesterday: 48 °F (at 6:00 pm)
Minimum temperature yesterday: 36 °F (at 9:00 am)
Average temperature yesterday: 42 °F

High & Low Weather Summary for the Past Weeks

 TemperatureHumidityPressure
High74 °F (Apr 10, 4:00 pm)96% (Apr 18, 7:00 pm)30.60 "Hg (Apr 18, 7:00 pm)
Low29 °F (Apr 21, 6:00 am)33% (Apr 10, 5:00 pm)29.88 "Hg (Apr 13, 3:00 am)
Average46 °F72%30.18 "Hg
* Reported Apr 9 5:00 am — Apr 24 5:00 am, Salzburg, Weather by CustomWeather, © 2017

Note: Actual official high and low records may vary slightly from our data, if they occured in-between our weather recording intervals... More about our weather records

Advertising

Salzburg Weather History for the Previous 24 Hours

Scroll right to see more
 ConditionsComfort  
Time TempWeatherWind HumidityBarometerVisibility
5:00 am
Mon, Apr 24
32 °FChilly.N/A90%30.23 "Hg19 mi
4:00 am33 °FChilly.N/A93%30.25 "Hg18 mi
3:00 am34 °FChilly.N/A91%30.26 "Hg19 mi
2:00 am37 °FPassing clouds.N/A85%30.27 "Hg28 mi
1:00 am40 °FOvercast.N/A80%30.27 "Hg28 mi
12:00 am42 °FOvercast.N/A70%30.27 "Hg25 mi
11:00 pm
Sun, Apr 23
42 °FOvercast.N/A68%30.28 "Hg28 mi
10:00 pm44 °FOvercast.5 mph56%30.27 "Hg22 mi
9:00 pm44 °FOvercast.N/A64%30.25 "Hg22 mi
8:00 pm45 °FOvercast.N/A60%30.23 "Hg22 mi
7:00 pm47 °FOvercast.3 mph60%30.21 "Hg19 mi
6:00 pm48 °FPartly sunny.5 mph55%30.20 "Hg25 mi
5:00 pm48 °FOvercast.5 mph54%30.20 "Hg22 mi
4:00 pm48 °FOvercast.6 mph53%30.21 "Hg19 mi
3:00 pm47 °FOvercast.6 mph56%30.22 "Hg22 mi
1:00 pm45 °FOvercast.5 mph58%30.23 "Hg19 mi
12:00 pm45 °FOvercast.3 mph62%30.24 "Hg18 mi
11:00 am42 °FLow clouds.N/A80%30.26 "Hg14 mi
10:00 am39 °FLow clouds.N/A88%30.27 "Hg9 mi
9:00 am36 °FOvercast.N/A89%30.27 "Hg1 mi
8:00 am37 °FLight rain. Low clouds.N/A93%30.26 "Hg10 mi
7:00 am38 °FLight rain. Overcast.N/A90%30.24 "Hg11 mi
6:00 am38 °FLight rain. Overcast.N/A86%30.23 "Hg22 mi
Weather by CustomWeather, © 2017

See weather overviewHow to use our weather pages